Theta_e
319 319 319 319 319 319 317 315 315 315 314 315 315 314 313 313 313 314 315 314 313 313 313 313 314 315 316 317 319 320 322 322 323 325 323 322 324 326 327 329 329 330 332 334 335 335 336 336 337 338 337 335 335 335 335 335 334 335 336 335 335 333 333 335 336 335 334 334 333 334 334 335 336 336 334 333 332 333 333 332 331 329 329 330 329
320 320 319 318 318 318 317 315 315 315 314 314 315 314 313 313 313 314 314 313 313 313 312 312 313 314 315 316 318 319 320 322 322 324 323 321 324 325 326 327 328 328 329 331 333 334 334 336 336 337 336 335 335 334 334 335 334 333 334 334 335 335 334 335 335 334 334 333 333 334 335 335 335 336 336 335 334 335 334 334 334 332 332 333 331
322 321 319 318 318 317 316 315 315 315 314 314 315 314 313 313 313 313 313 313 312 312 312 312 313 314 315 316 317 318 319 320 321 324 323 321 322 324 325 326 327 327 327 328 331 332 334 335 335 336 335 335 335 335 334 334 333 333 333 333 334 336 336 334 334 334 334 334 334 336 337 336 336 335 335 336 335 336 335 335 334 333 333 334 333
322 321 319 318 318 317 315 315 315 315 314 314 314 313 313 313 313 313 313 312 312 312 311 312 314 313 314 316 316 317 318 319 320 322 322 320 322 324 325 326 327 326 327 327 328 331 333 334 335 335 335 334 334 335 334 333 333 333 332 333 334 336 335 334 334 334 334 335 336 337 335 336 338 336 335 335 334 334 335 335 335 334 334 335 333
322 322 320 318 317 317 315 315 315 314 314 314 313 313 313 313 313 313 312 312 312 312 311 312 314 314 314 315 315 316 317 318 319 321 321 320 321 323 324 326 327 327 327 327 327 329 331 333 334 334 334 335 334 333 334 333 332 332 332 332 333 335 336 334 334 334 334 334 335 336 335 336 339 337 334 335 333 333 334 336 335 334 335 335 334
322 321 320 317 317 316 315 315 314 314 314 313 313 313 313 313 312 312 312 312 312 312 312 312 313 314 314 314 315 316 316 317 318 319 321 320 320 322 323 324 326 327 328 327 328 329 331 332 333 334 335 335 334 333 334 333 332 332 332 332 332 333 335 335 333 333 333 333 334 335 335 337 339 336 335 335 334 334 335 335 333 333 336 337 336
325 321 318 316 316 316 315 315 314 314 314 313 312 312 312 312 312 312 312 311 311 311 312 312 313 314 314 314 315 315 315 316 317 319 320 320 319 321 322 323 325 327 328 328 329 330 331 332 333 334 334 335 335 334 334 333 332 332 332 331 332 332 334 335 334 333 334 333 335 337 336 337 338 336 336 338 337 336 336 335 334 334 336 337 337
329 325 319 316 315 315 314 314 314 314 314 313 312 312 312 312 311 312 312 311 311 311 312 312 313 313 313 314 314 314 315 316 316 318 318 318 319 319 321 323 324 325 328 329 330 331 331 332 333 333 334 334 335 335 335 334 332 333 332 332 332 332 333 335 334 335 335 334 335 337 336 337 339 337 337 338 338 338 337 336 336 335 335 336 337
330 325 319 315 315 315 314 314 315 314 313 312 312 312 311 311 311 311 311 311 311 311 311 312 313 313 313 314 314 314 315 315 316 317 317 317 318 318 319 322 322 323 327 330 330 331 330 331 333 333 334 334 334 335 335 334 333 333 333 333 333 333 333 334 334 336 336 335 336 338 337 338 339 338 338 336 335 338 339 337 336 336 335 335 336
329 322 317 315 315 315 314 314 314 314 313 312 311 311 311 311 310 310 311 311 311 311 311 311 312 313 313 314 314 314 315 315 315 316 316 316 317 317 318 321 322 322 325 328 330 330 330 331 331 332 333 333 333 334 333 332 333 333 333 333 333 333 334 334 334 336 337 336 337 337 338 339 339 338 338 337 335 336 338 336 334 335 336 335 336
329 322 315 315 315 315 314 314 313 313 313 312 311 311 311 310 310 310 311 312 312 311 311 311 311 312 313 314 314 314 314 314 315 315 315 315 316 317 317 319 322 321 322 325 328 329 330 330 330 329 331 332 332 333 332 332 333 333 333 333 333 334 334 334 334 335 337 338 338 337 337 338 338 338 338 338 336 335 338 337 333 335 336 335 336
330 325 317 315 315 314 314 314 313 313 312 312 311 311 310 310 310 310 311 312 312 311 311 312 311 312 313 314 314 313 314 314 314 314 315 315 315 316 317 318 321 321 320 322 325 327 328 329 329 329 330 331 333 333 332 332 332 332 333 333 333 334 334 335 336 336 337 337 337 336 336 337 337 337 337 338 337 335 335 335 333 336 336 335 336
328 326 320 316 314 314 314 313 313 313 312 311 311 310 310 310 310 310 312 312 312 311 311 312 312 312 312 313 313 313 313 314 314 314 314 315 315 316 316 317 319 320 320 321 323 324 326 327 328 329 329 330 332 332 331 332 331 331 332 333 333 334 334 335 336 337 336 335 335 335 336 337 337 337 337 337 337 336 334 333 335 337 337 337 337
325 325 321 316 314 314 313 313 312 313 312 311 310 310 310 310 310 311 312 312 311 311 311 311 312 312 312 312 313 313 313 313 314 314 314 314 315 315 316 316 317 319 320 320 321 323 324 325 327 328 329 330 331 332 332 332 330 330 331 332 333 333 333 334 335 335 334 332 332 334 335 337 337 337 337 338 338 337 335 333 335 337 337 337 338
322 324 321 315 313 314 313 312 312 313 312 310 310 310 310 310 311 312 312 311 311 311 311 311 312 312 312 311 312 312 313 314 314 314 315 315 315 315 316 316 316 317 319 319 320 321 322 323 326 328 329 330 330 331 332 332 331 331 332 332 332 333 332 332 332 332 331 331 331 332 334 337 338 337 337 338 338 338 336 334 334 336 338 338 337
322 323 320 314 313 314 312 312 312 312 312 310 310 310 310 311 311 311 311 310 310 310 310 311 312 312 312 311 311 312 313 314 314 314 315 315 315 315 315 316 316 316 317 318 319 319 320 321 324 327 328 329 330 330 331 332 332 333 333 333 332 332 332 332 331 330 330 330 330 329 332 334 336 336 336 337 338 338 337 336 335 334 335 338 338
321 320 317 314 314 313 312 312 311 311 312 310 309 310 310 310 310 310 310 310 309 310 310 311 311 312 312 312 312 313 314 314 314 315 315 315 316 316 316 316 316 316 317 318 318 319 319 320 322 324 326 328 329 329 330 331 332 333 332 332 332 331 330 330 330 329 328 328 329 328 330 333 334 336 337 337 338 337 336 336 335 333 332 335 339
319 317 315 313 313 312 312 312 311 311 312 310 309 310 310 310 310 310 310 310 310 310 309 310 311 312 312 312 313 313 314 314 314 315 316 316 316 316 317 317 317 317 317 317 318 318 319 319 319 321 323 325 327 328 329 330 331 332 332 332 332 330 329 329 329 330 329 330 331 331 332 334 335 335 336 337 337 337 336 335 334 333 333 333 334
318 318 316 313 312 312 312 312 311 311 311 310 310 310 309 309 308 309 310 310 310 310 309 309 311 311 311 313 313 313 314 314 314 316 316 316 317 317 317 317 317 318 317 317 317 318 319 318 318 320 322 324 325 326 328 329 330 331 331 332 332 331 330 331 332 332 333 333 333 333 334 334 335 336 336 335 334 334 335 334 332 332 333 333 331
318 318 316 312 311 312 312 311 311 311 310 310 310 309 309 308 308 308 309 310 311 310 310 310 310 310 311 313 313 313 314 314 314 316 316 316 317 317 317 317 318 318 318 318 318 318 319 319 318 318 320 323 325 325 326 328 329 330 329 328 331 332 331 331 333 333 333 333 333 333 334 334 334 335 334 333 332 332 332 332 332 331 332 332 331
318 318 315 311 311 312 311 311 311 310 309 309 309 309 309 308 308 308 309 310 310 310 310 310 310 310 311 313 313 313 313 314 315 315 316 317 317 318 318 318 318 319 319 319 319 319 319 319 318 318 319 320 323 324 326 326 328 329 327 326 329 331 330 329 331 330 330 331 331 332 333 333 333 333 333 332 332 332 332 331 332 332 332 331 331
317 317 313 311 311 312 311 311 311 310 309 309 309 309 308 308 308 308 309 310 310 310 310 310 311 311 311 312 313 313 313 314 315 315 316 317 317 318 318 318 318 319 319 319 319 319 319 319 319 318 318 319 320 322 323 324 325 327 328 328 329 330 330 329 329 327 327 328 329 330 330 331 331 331 332 333 333 332 332 332 333 333 332 332 332
317 315 312 311 312 312 311 312 311 309 309 309 309 309 308 308 309 309 309 309 310 311 310 310 311 311 311 312 312 312 313 314 315 315 315 316 317 317 318 318 318 318 318 318 319 319 319 319 320 320 319 319 319 320 320 321 322 324 326 327 328 329 330 328 327 326 326 326 326 326 327 328 330 331 331 332 332 332 332 332 333 334 334 334 334
317 314 311 310 311 311 311 311 310 309 309 309 309 309 308 309 309 309 308 309 310 311 310 310 311 311 310 311 312 312 313 314 315 315 315 316 317 317 317 318 318 317 317 318 318 318 319 319 319 320 320 319 319 320 320 319 319 320 322 323 324 326 328 327 326 325 325 325 324 324 323 324 328 330 331 331 332 332 332 333 333 333 333 333 334
317 315 313 312 311 310 310 310 310 309 309 309 309 308 308 309 309 309 308 308 309 310 310 310 310 310 310 310 311 312 313 314 314 314 315 316 317 316 316 317 317 317 317 317 317 317 318 319 319 319 320 320 319 320 320 320 319 320 320 320 321 323 325 325 326 326 325 324 323 323 322 322 324 329 330 331 331 332 332 333 333 334 334 333 333
316 316 316 313 311 309 309 310 309 309 309 309 308 308 308 308 309 308 308 308 309 310 310 310 310 310 310 310 311 312 313 313 313 314 315 316 316 315 315 315 315 315 315 315 315 316 317 319 319 319 319 319 319 320 320 320 320 320 320 320 320 321 321 322 325 326 326 324 322 322 322 321 322 325 328 330 330 331 332 332 333 334 334 333 332
315 316 315 315 313 310 309 310 309 309 309 308 308 308 308 308 308 307 308 309 310 310 309 309 310 310 310 311 311 311 312 313 312 314 315 314 314 314 314 314 314 314 314 314 314 315 317 318 318 318 319 318 318 319 319 320 320 320 320 320 321 321 320 322 325 326 325 325 323 321 321 321 321 322 324 327 329 329 330 331 332 333 332 332 332
316 317 316 316 316 310 308 310 309 309 309 308 308 308 308 308 308 307 308 308 309 309 309 309 309 309 310 310 311 311 312 312 312 313 314 313 313 313 313 313 313 313 314 314 314 314 315 316 316 317 318 318 318 318 318 319 319 320 320 321 321 321 320 322 324 325 325 325 324 322 321 321 321 321 322 324 324 323 327 330 331 330 331 331 331
318 318 316 317 315 310 308 309 309 309 308 308 308 308 308 308 307 307 307 308 309 309 309 309 309 309 310 310 311 311 311 311 312 312 313 313 312 313 313 313 313 313 313 314 314 314 314 314 315 315 316 316 317 318 318 318 318 318 319 320 321 321 321 321 322 323 324 325 325 325 324 322 321 320 320 321 321 320 324 329 330 329 330 331 331
319 318 316 315 312 309 308 309 309 308 308 308 307 307 308 308 307 307 307 308 309 309 309 309 309 309 310 310 310 311 311 311 312 312 313 312 312 312 312 313 313 313 313 313 313 313 313 313 313 314 314 315 315 315 316 317 317 318 318 318 319 319 320 321 321 322 323 323 324 326 326 326 324 322 320 320 320 319 321 326 328 328 329 331 332
319 316 315 315 311 308 308 309 308 308 308 307 307 307 307 307 307 307 307 309 309 309 308 308 309 309 309 310 310 310 310 311 312 312 312 311 311 311 312 313 313 312 312 312 312 311 311 311 311 311 311 312 313 313 314 315 316 317 317 317 318 318 319 319 320 321 321 322 323 324 325 325 326 326 324 323 322 322 322 324 326 326 328 330 331
320 315 315 316 312 308 307 308 308 308 308 307 307 308 307 307 307 307 308 309 309 308 308 308 309 309 309 309 310 310 310 310 311 312 312 312 311 311 311 312 313 312 312 311 311 311 311 310 310 309 308 308 309 311 312 314 315 316 316 317 317 317 318 318 318 319 320 320 321 322 323 323 325 326 327 326 325 325 325 326 326 326 327 328 329
319 315 315 314 310 307 307 308 308 307 307 307 307 307 307 307 306 307 308 309 309 308 307 308 308 309 309 309 309 309 309 309 310 311 311 312 311 311 312 312 312 312 312 311 311 310 310 310 309 308 307 306 306 308 310 311 313 315 315 316 316 317 317 317 317 318 320 321 320 321 322 323 324 325 326 326 325 325 326 326 326 325 325 325 326
316 315 313 309 308 307 307 307 307 307 307 307 307 307 307 306 307 308 308 309 308 308 307 308 308 308 309 309 309 309 309 309 309 310 310 310 310 310 311 312 312 312 312 311 311 310 309 309 309 308 307 306 305 306 307 309 311 312 313 315 316 316 316 316 317 318 320 322 321 321 322 323 323 324 325 325 325 326 326 325 325 325 325 325 326
317 316 310 306 306 307 307 307 307 307 307 307 307 306 306 306 307 308 308 308 308 308 307 307 307 307 308 308 309 309 308 309 309 309 309 309 309 309 310 311 312 312 312 311 311 310 309 309 308 308 307 306 305 305 307 309 310 311 312 314 315 316 317 317 318 319 321 321 321 321 321 321 321 321 322 323 324 325 325 325 325 325 325 325 325
314 312 308 306 307 307 307 307 307 307 306 306 306 306 305 306 307 307 308 308 308 307 307 307 307 307 307 308 308 308 308 309 308 308 308 308 308 309 309 310 312 312 312 311 310 310 309 308 308 308 307 305 305 305 306 308 310 312 313 314 316 317 317 318 319 319 320 320 320 320 320 320 320 320 320 320 321 322 323 323 323 323 322 323 323
309 308 308 308 308 308 307 307 307 306 306 306 305 305 305 306 306 307 308 308 308 307 308 308 308 307 307 308 308 308 308 308 307 307 308 308 308 308 308 309 311 312 312 311 310 310 309 308 308 308 306 305 304 305 306 308 310 312 313 315 317 316 316 316 316 316 317 317 317 317 318 318 318 319 319 319 319 320 320 321 321 320 319 319 320
308 308 308 307 308 308 307 307 307 306 306 306 305 305 305 305 306 307 307 307 307 307 307 307 307 307 307 308 308 308 308 307 307 307 307 307 308 308 308 309 310 311 311 311 310 310 310 309 309 308 305 304 304 304 305 307 309 310 312 314 315 314 314 313 313 314 314 314 314 314 315 315 316 316 317 317 317 318 318 318 318 318 317 316 316
309 308 308 308 308 308 307 307 307 306 306 306 305 305 305 306 306 306 305 306 306 306 307 308 307 306 307 307 307 307 307 307 307 307 307 307 307 308 308 309 310 310 310 310 310 310 310 309 309 307 304 303 304 304 304 306 307 309 310 313 314 314 313 312 312 312 312 313 313 313 313 314 314 314 314 314 315 315 315 315 315 315 315 315 315
308 308 309 308 308 308 307 307 307 306 306 306 305 305 305 306 306 305 305 305 305 306 307 307 306 306 306 306 307 307 306 307 307 307 307 307 307 307 308 308 309 310 310 309 310 310 310 309 308 306 304 303 303 303 304 305 306 308 309 312 313 313 312 311 311 311 311 311 311 311 311 312 312 312 313 313 314 314 314 314 314 314 315 315 315
309 309 309 308 308 308 308 307 307 307 306 306 305 305 305 306 305 305 305 305 305 306 307 307 306 306 305 306 306 306 306 307 307 307 307 306 306 307 308 308 308 309 309 309 309 310 310 309 307 305 304 303 302 303 304 305 306 307 308 310 311 311 310 310 310 310 309 309 309 308 309 309 309 309 310 311 312 313 313 314 314 314 315 315 314
309 309 308 308 308 308 307 307 307 307 306 306 305 305 306 306 305 305 305 305 305 305 306 306 306 306 305 306 306 306 306 306 306 307 307 305 305 306 307 307 307 308 309 309 309 309 309 308 306 304 303 301 301 302 304 305 306 306 307 309 309 309 309 309 309 308 308 308 307 307 307 307 306 306 306 307 308 309 311 312 313 313 313 314 314
309 309 309 308 308 308 307 307 307 307 307 306 305 306 306 305 305 305 305 305 305 305 305 304 304 305 305 305 305 305 305 306 306 306 305 304 303 305 307 307 307 308 308 308 309 309 308 307 305 303 301 300 301 303 304 305 306 307 307 308 308 308 308 308 308 308 307 307 307 307 306 306 306 305 304 304 305 305 307 308 309 311 312 312 313
309 309 309 309 308 308 308 307 307 307 306 306 306 306 306 305 305 305 304 304 304 305 304 304 304 304 305 304 304 304 304 306 305 304 304 303 302 304 306 307 307 308 308 309 309 309 307 305 303 301 300 301 302 303 305 305 306 307 308 308 308 308 308 308 308 307 307 307 308 307 307 306 305 304 303 303 303 304 304 304 305 306 307 308 309
309 309 309 308 309 309 308 307 307 307 306 307 306 306 306 305 305 305 304 304 304 304 304 304 304 305 304 304 304 303 303 304 304 303 304 303 300 302 306 306 307 308 309 309 308 307 305 303 301 300 300 301 302 304 305 306 307 308 307 308 308 308 308 308 308 308 308 308 308 308 307 306 304 303 302 301 301 302 303 303 303 302 303 303 304
309 309 309 309 309 309 308 307 307 307 307 307 306 306 306 306 305 304 304 304 305 304 304 304 305 305 304 304 305 303 301 301 301 302 302 299 298 302 306 305 305 307 308 307 306 304 303 301 300 300 300 301 303 304 305 305 305 305 305 306 308 308 309 309 308 308 308 308 308 308 307 306 305 303 302 301 300 299 300 302 302 302 302 302 301
310 310 310 309 309 308 308 308 307 307 307 307 306 306 306 306 305 304 305 305 305 305 304 304 305 305 304 303 304 304 301 300 299 300 299 296 297 302 305 305 305 305 305 304 304 303 301 300 299 300 301 302 303 303 303 303 303 303 305 307 308 308 308 307 306 306 307 307 307 306 306 305 305 304 302 301 300 299 298 299 301 302 302 302 301
311 310 310 310 308 308 309 308 308 308 307 307 307 306 306 306 305 304 305 305 305 304 304 304 305 305 304 304 304 303 302 300 297 296 295 294 296 299 302 303 304 304 304 303 302 301 300 299 299 301 302 302 302 302 302 302 302 303 305 306 306 306 305 304 303 304 304 304 303 303 303 302 302 302 302 302 302 300 298 297 299 301 301 301 301
311 311 310 310 309 309 309 308 309 309 307 307 307 306 306 306 305 304 304 305 304 304 304 304 304 305 305 305 304 303 302 300 297 294 294 294 295 296 298 300 303 304 304 301 300 300 299 299 299 301 302 302 302 301 301 301 301 302 304 305 304 304 303 303 303 303 302 302 302 301 301 301 300 300 301 301 301 301 298 296 297 299 299 298 298
311 311 311 311 310 309 309 309 309 309 308 307 307 306 306 306 305 305 305 305 305 305 304 304 304 304 305 305 305 303 301 300 298 297 295 294 294 294 297 299 301 302 301 299 297 298 298 298 298 300 301 301 301 301 301 301 301 302 303 304 304 304 303 303 303 302 302 302 302 301 301 300 299 299 299 299 300 300 298 297 296 297 297 296 295
311 312 311 310 309 309 309 309 309 309 308 307 307 306 306 306 306 306 305 305 305 305 304 304 304 305 306 306 305 304 302 300 300 299 297 296 294 293 294 296 297 298 297 297 296 297 297 297 298 299 300 301 301 301 302 302 302 302 303 303 303 303 303 302 302 301 301 301 300 300 300 299 299 298 298 298 299 299 298 296 297 298 298 297 296
Wind_Speed
14 19 18 16 15 14 13 12 12 11 10 10 11 12 12 13 13 13 13 14 15 16 16 16 17 18 18 19 19 17 15 15 13 13 17 17 14 12 9 8 8 8 9 11 12 13 15 18 19 19 18 19 20 19 19 17 14 13 15 14 12 12 12 10 11 14 15 12 8 8 6 6 7 10 14 17 16 15 15 15 15 15 16 16 15
13 16 18 18 16 16 16 13 12 12 11 11 10 10 11 12 12 12 12 15 16 16 16 15 15 15 17 17 17 16 15 16 14 12 17 18 15 14 12 9 9 9 8 9 12 12 14 17 19 20 20 20 20 20 19 19 17 15 15 16 13 14 15 13 14 15 13 11 9 6 4 5 5 7 11 16 16 15 17 17 16 18 19 18 17
10 12 16 19 18 18 18 14 13 12 12 12 10 9 11 12 11 11 13 15 16 17 16 15 13 12 14 15 15 15 15 16 15 13 16 19 17 16 15 13 11 10 9 9 11 12 13 15 18 20 20 21 21 20 20 20 19 17 16 17 15 14 14 15 17 15 14 14 9 5 3 3 2 5 7 14 16 15 18 18 16 19 22 21 20
10 9 13 17 17 19 19 15 12 11 12 13 12 10 11 12 11 12 14 16 16 17 17 14 12 11 12 13 13 14 14 17 17 16 19 20 18 17 17 16 13 11 10 9 10 13 13 14 17 20 20 21 22 21 21 21 21 19 18 17 18 17 15 17 19 17 19 18 8 3 3 3 2 4 5 9 13 15 18 19 16 20 25 25 24
11 9 10 14 16 19 20 16 12 11 11 12 12 11 11 11 11 13 14 15 16 16 16 14 14 14 14 15 14 14 15 19 20 19 20 21 20 18 17 18 16 14 13 11 10 12 14 15 17 20 20 20 22 22 21 21 21 21 20 18 19 19 17 19 20 18 19 20 12 6 5 1 2 6 7 7 12 14 17 18 17 20 24 26 26
8 9 11 13 16 19 19 16 13 11 11 11 12 11 10 10 11 13 14 15 15 16 15 14 14 16 16 17 17 17 18 19 20 19 18 19 20 19 19 20 20 17 14 11 9 11 13 14 16 19 20 21 22 23 22 21 21 22 21 20 21 20 19 19 22 22 19 19 17 12 8 7 4 10 7 3 9 13 15 17 19 21 23 24 25
6 8 11 13 17 18 16 15 13 11 11 11 11 10 10 10 11 12 13 14 15 15 15 13 13 15 16 16 16 16 17 18 18 17 17 17 18 19 21 22 23 21 13 8 7 9 12 13 15 18 21 22 22 24 24 22 22 22 21 22 21 22 23 21 24 24 20 21 19 14 13 13 7 14 9 2 5 8 13 17 20 21 22 23 24
6 7 8 12 16 17 16 14 12 12 12 10 10 10 9 9 10 11 12 13 14 15 14 13 12 14 15 15 15 15 15 16 17 17 17 17 17 19 22 23 25 23 14 8 5 4 9 12 14 17 21 24 24 25 24 23 23 23 22 22 22 24 26 24 27 27 23 24 22 17 17 12 9 15 14 10 5 3 7 12 16 19 20 23 23
6 6 8 12 17 18 17 14 12 12 10 9 9 9 9 9 10 10 11 11 13 14 13 12 12 12 14 14 14 15 14 15 16 17 17 18 18 19 22 23 24 25 18 10 5 3 5 10 14 18 23 26 25 23 24 24 25 24 22 23 23 25 27 25 28 30 28 25 23 21 16 7 8 12 13 13 5 3 4 4 10 14 15 21 23
5 7 11 14 18 19 16 14 13 11 9 9 9 8 8 8 9 10 9 8 11 12 11 12 12 11 12 13 14 14 14 15 16 17 18 19 19 20 22 22 22 24 21 13 5 2 4 8 13 15 20 27 26 22 22 22 23 24 22 23 24 25 26 26 28 30 29 27 23 22 16 9 8 7 9 12 6 3 4 4 10 13 10 16 23
4 7 11 15 18 18 16 14 12 10 9 9 8 7 7 7 8 9 7 6 10 12 10 11 12 11 11 11 12 13 13 15 16 16 18 19 19 20 22 20 18 21 23 18 10 4 2 5 9 9 10 18 21 21 22 21 21 23 22 23 24 25 27 27 28 29 28 27 24 22 19 14 11 9 10 12 8 3 3 4 10 15 13 13 18
5 6 8 12 14 14 14 13 10 9 9 8 8 7 7 7 8 10 8 7 9 11 10 10 11 11 11 10 11 12 12 13 14 15 16 17 18 19 21 20 18 19 22 21 16 10 5 2 7 10 8 9 12 17 22 23 23 23 23 24 25 26 28 27 26 26 26 26 24 22 21 19 16 14 12 12 10 7 4 4 8 11 10 11 13
5 5 6 8 11 12 13 12 9 10 9 7 8 7 6 7 9 10 10 8 10 11 10 10 9 10 10 10 11 12 11 12 12 13 14 15 16 17 19 21 19 18 19 20 19 15 11 7 2 8 10 8 7 12 20 23 23 24 24 25 25 26 28 28 26 25 24 24 23 22 21 21 20 17 14 11 10 9 5 4 7 8 6 8 11
5 5 5 6 10 13 13 10 8 10 10 8 8 8 7 8 9 11 11 10 11 11 10 10 9 9 9 10 12 12 12 12 11 12 14 14 15 15 17 18 18 17 16 17 18 17 14 10 5 2 8 11 9 10 17 20 20 22 23 23 25 26 26 27 27 25 23 23 22 21 22 23 22 20 18 14 11 11 8 6 5 5 3 4 7
4 4 6 8 12 15 13 9 8 10 9 9 9 8 8 9 10 11 11 10 10 11 10 10 9 9 9 9 11 12 12 12 12 12 13 13 14 14 15 15 16 15 14 14 16 16 16 12 7 3 3 8 9 10 15 17 18 22 24 24 25 25 24 24 25 24 22 22 22 21 22 24 23 22 21 18 14 12 11 9 7 4 2 2 3
5 5 6 10 14 16 14 10 8 8 8 10 9 8 8 10 11 11 11 10 10 10 10 9 8 9 10 9 10 11 11 12 12 12 12 13 12 13 13 13 13 14 13 13 14 15 15 13 9 6 2 4 7 10 13 13 16 21 23 24 24 23 23 23 23 24 23 22 22 22 23 25 25 23 22 20 18 14 12 10 9 8 5 2 2
6 6 7 10 15 16 13 10 6 5 9 12 9 8 10 11 11 11 10 10 10 10 10 10 9 9 9 10 10 11 11 11 12 13 13 12 12 11 12 12 12 13 12 12 13 14 15 13 11 9 5 1 5 9 11 11 15 19 20 23 24 23 23 23 23 24 24 23 23 23 23 24 24 23 21 19 18 16 13 10 9 9 7 5 3
7 8 9 11 15 15 12 9 5 4 9 12 11 10 12 11 9 10 9 8 10 10 11 11 9 9 10 10 11 11 11 11 12 12 12 11 11 11 11 12 11 12 12 11 10 12 13 12 11 9 7 3 3 8 10 10 13 17 18 20 22 23 22 21 21 22 22 23 22 21 21 22 21 20 19 17 15 15 15 12 9 7 7 6 3
7 7 7 9 13 14 11 9 5 5 11 13 13 13 12 10 9 9 8 7 8 10 10 10 9 11 11 10 10 12 11 11 11 11 12 11 11 10 10 11 11 11 11 10 9 10 10 10 10 9 6 5 3 3 7 9 11 14 17 17 19 20 19 18 17 17 19 19 17 18 19 20 20 19 17 16 14 14 15 16 13 10 9 8 5
7 7 6 8 13 13 11 9 7 9 14 16 16 14 11 9 9 9 8 6 7 8 9 9 9 11 12 10 10 11 12 12 10 10 12 11 10 9 9 9 9 9 10 9 9 9 7 7 9 9 7 4 4 4 6 7 7 12 16 16 15 15 16 15 13 12 13 14 14 15 17 18 18 17 16 15 14 13 13 14 14 11 9 8 7
6 6 6 9 13 14 13 10 9 14 17 17 16 13 11 10 9 8 7 6 6 7 9 8 8 9 11 10 9 11 12 11 10 10 12 11 9 8 7 7 7 8 9 9 8 8 7 6 7 8 8 5 3 3 4 4 3 6 12 14 14 15 16 16 14 12 11 11 11 12 14 15 15 14 14 14 14 14 13 12 11 9 9 8 9
7 7 7 10 14 16 13 8 11 16 17 16 15 13 11 10 9 7 6 6 5 6 8 7 7 8 9 10 10 11 12 10 10 11 11 10 10 9 8 7 7 8 8 9 8 7 7 7 6 7 7 5 4 3 2 1 1 2 6 11 12 13 16 18 17 16 13 11 10 10 11 11 12 12 12 13 13 14 14 12 10 10 11 11 12
7 8 9 13 16 16 11 9 13 17 17 17 15 13 11 10 9 8 7 7 5 5 6 5 5 6 8 9 10 11 11 10 10 11 11 11 11 10 9 8 8 8 8 8 8 7 6 6 6 7 6 4 4 3 5 3 2 3 3 8 10 9 12 15 16 15 14 13 11 10 9 8 9 11 12 12 13 13 13 11 8 8 10 11 11
8 8 11 14 15 12 11 13 15 16 18 18 15 13 11 10 9 8 9 8 5 4 5 4 3 5 7 9 10 11 11 11 11 12 12 12 11 10 10 8 7 7 7 7 7 7 6 5 5 6 6 4 2 1 2 3 2 3 2 6 9 9 10 13 15 16 15 15 14 12 10 7 7 10 12 12 12 11 11 9 7 6 7 8 8
9 8 9 10 10 10 13 15 14 15 19 19 15 13 11 10 8 8 8 8 4 4 3 3 3 5 7 8 9 11 11 10 10 12 13 12 11 10 9 8 7 6 7 7 8 8 7 6 5 5 6 5 2 2 3 1 0 1 0 3 6 9 10 9 13 18 18 17 17 14 12 9 7 8 10 11 10 9 9 8 6 5 5 7 9
10 9 8 7 8 10 13 14 13 14 18 19 16 12 11 10 8 7 7 7 5 4 3 2 2 4 6 7 8 10 10 10 10 11 11 10 9 9 9 9 8 7 7 8 9 8 7 6 5 5 5 5 3 3 4 3 2 1 1 1 3 5 8 8 11 17 18 19 19 16 14 12 9 8 8 8 8 7 8 8 8 8 7 7 9
9 8 7 7 8 10 13 14 12 13 16 17 14 12 11 9 8 7 7 6 5 4 3 3 2 3 4 6 7 8 8 8 9 10 9 8 9 9 9 10 9 9 9 9 9 8 6 6 6 6 5 5 4 4 3 3 2 1 2 2 2 3 6 6 7 12 17 18 18 16 16 14 12 9 7 7 7 6 6 7 7 8 8 7 8
7 7 7 8 7 9 12 14 13 13 15 16 13 12 10 9 8 7 7 5 4 4 3 2 2 2 3 5 6 7 6 7 9 9 7 7 8 9 9 10 10 10 10 9 9 7 5 6 7 7 6 4 3 3 3 3 2 1 0 2 2 3 5 5 4 7 13 17 17 16 15 14 13 12 9 7 6 5 4 5 6 6 6 7 8
7 7 8 8 8 9 12 13 14 15 17 16 14 12 10 9 7 6 6 4 4 4 3 3 3 2 3 4 5 5 6 7 9 7 6 5 7 8 9 10 10 10 10 9 7 6 6 7 7 7 6 5 4 3 2 2 1 0 0 1 2 2 3 6 6 5 7 12 15 15 15 13 13 13 13 11 7 4 4 6 6 6 5 6 7
8 9 8 8 9 11 13 14 15 16 17 16 14 12 10 8 5 4 4 4 5 4 4 3 3 2 2 4 4 4 6 8 7 6 5 6 7 9 9 9 9 10 10 8 8 7 8 9 9 7 7 6 5 5 4 3 2 2 3 3 4 4 3 3 5 4 5 7 10 12 13 13 13 13 13 13 10 8 7 6 4 3 3 4 6
9 9 8 8 8 11 13 14 15 16 16 15 13 11 9 5 3 2 3 5 6 5 5 3 3 2 2 4 5 5 8 8 7 7 6 7 9 10 9 7 8 10 9 8 10 10 10 10 10 9 9 8 7 6 5 4 3 4 4 5 5 6 6 5 3 2 2 3 6 9 10 11 12 13 12 10 9 9 9 8 5 2 2 4 6
8 8 9 8 8 9 11 12 14 15 16 14 12 10 7 4 3 3 4 7 6 6 6 5 3 2 2 4 5 7 10 10 8 8 7 7 9 9 7 6 7 8 8 8 10 10 11 11 11 11 11 11 10 7 5 4 3 3 3 4 5 6 7 7 5 2 3 3 2 5 6 9 11 12 10 9 8 8 8 6 4 3 3 4 5
8 9 9 8 8 10 12 14 15 15 13 11 10 9 7 4 4 3 6 9 7 7 7 5 5 4 3 4 5 7 10 10 10 9 6 6 8 7 5 5 4 5 7 8 9 9 9 9 10 11 12 13 11 8 6 4 3 3 3 3 4 6 7 7 7 4 2 3 1 1 1 5 9 11 12 10 8 8 8 6 4 3 2 3 4
6 6 6 8 10 12 14 15 15 13 11 11 10 8 5 3 5 4 8 10 8 7 6 5 5 5 4 3 5 6 7 8 9 9 6 6 6 6 5 4 2 2 4 6 7 7 8 8 8 10 12 14 13 10 6 4 4 4 4 3 4 5 7 7 6 3 1 1 2 3 3 5 7 8 9 9 8 8 8 6 5 3 3 4 4
5 6 7 11 14 15 15 15 14 13 12 10 8 5 4 4 5 4 8 10 8 7 5 5 5 4 3 2 3 5 6 6 6 6 5 5 4 4 6 4 0 1 2 4 6 7 7 8 9 10 12 14 13 11 7 5 4 1 2 3 2 2 3 2 1 2 3 3 5 6 5 5 6 7 8 7 7 7 7 7 8 6 4 5 5
8 10 12 16 18 18 17 15 14 12 10 8 5 3 5 5 5 3 8 11 9 6 5 6 5 3 1 1 1 2 3 4 4 3 4 4 2 3 5 4 1 3 3 2 4 6 6 8 9 9 11 13 13 12 9 7 7 6 6 7 7 7 8 9 9 9 9 8 8 7 6 6 6 7 7 7 6 6 6 6 7 7 6 6 6
13 16 19 20 20 19 17 15 13 11 9 6 3 4 5 3 5 3 8 11 9 6 6 6 4 1 1 2 0 1 1 3 3 2 1 2 0 1 3 3 1 4 5 2 3 4 5 7 8 8 10 12 13 13 11 8 8 10 11 13 15 16 17 17 16 14 13 13 10 8 7 7 6 6 6 5 5 5 5 5 5 6 5 4 4
19 20 21 22 21 19 16 15 13 11 8 4 2 4 3 3 4 4 9 9 8 7 8 6 2 1 2 3 1 1 2 3 3 1 1 2 2 2 3 2 2 5 5 3 1 2 3 6 6 7 10 13 13 13 13 10 8 9 12 16 18 20 20 19 18 16 14 14 13 11 9 8 7 6 5 4 3 2 3 4 3 3 3 2 2
24 25 24 23 21 18 16 15 14 12 9 4 3 6 1 5 1 5 6 4 2 4 8 7 2 2 1 2 2 1 3 2 1 3 4 4 4 3 2 1 3 4 4 3 1 1 3 5 5 7 11 13 12 12 13 12 9 9 12 14 16 17 17 17 17 17 15 15 14 13 12 10 9 8 6 4 3 2 1 2 2 2 2 1 1
22 24 24 22 21 18 17 17 15 14 11 6 5 6 2 4 3 6 4 2 3 2 7 7 3 5 4 1 1 1 3 4 3 4 5 6 7 6 5 3 3 4 4 4 4 2 2 5 5 7 11 12 11 11 12 13 12 11 13 14 14 15 16 16 16 16 17 17 17 17 16 15 13 11 9 8 6 5 4 3 2 3 3 2 1
23 24 24 23 22 18 17 17 16 15 12 8 7 7 3 5 4 6 4 1 1 4 10 7 4 4 4 2 1 2 4 5 5 6 7 7 5 4 6 5 3 4 5 4 4 4 4 6 6 7 9 10 9 9 11 13 13 13 14 15 15 16 17 16 17 18 20 21 21 21 21 20 19 18 16 14 12 10 8 7 6 6 6 5 5
21 24 24 23 22 18 16 18 17 16 13 9 7 6 3 4 5 7 5 2 2 7 10 7 4 3 1 2 3 5 6 7 8 7 5 3 5 4 2 4 4 7 7 5 2 4 7 9 7 7 8 8 7 8 10 12 13 13 14 15 16 17 17 17 19 20 21 21 22 22 22 22 22 22 22 20 18 16 13 12 11 10 9 9 9
20 22 23 23 21 19 18 19 18 17 15 11 8 6 4 4 8 8 4 3 5 7 7 6 4 2 1 3 6 7 5 4 3 1 2 4 7 7 4 1 2 6 7 3 3 8 11 10 7 7 8 8 6 8 10 11 12 13 15 16 17 17 17 18 20 20 19 18 19 19 20 20 21 23 24 23 22 21 20 18 15 13 12 12 12
23 25 25 24 22 21 20 20 19 18 16 12 9 7 7 8 9 7 4 4 5 5 6 4 2 1 1 2 4 3 4 5 4 4 3 5 6 7 8 8 6 6 5 5 9 14 14 11 8 8 9 8 8 10 11 12 13 15 15 15 16 16 17 17 18 18 17 16 16 17 18 19 21 23 24 24 24 23 23 23 22 19 18 17 16
25 26 27 26 24 22 22 22 22 20 17 13 11 11 11 10 9 8 7 6 5 5 6 3 0 2 3 0 2 3 5 4 2 2 3 5 5 6 11 14 14 14 12 14 17 17 14 11 10 11 11 10 11 12 13 13 14 13 13 14 14 15 15 16 16 16 16 15 15 16 17 19 20 22 24 25 25 23 22 24 25 25 25 24 23
24 25 27 27 24 22 23 24 23 21 18 15 13 13 13 12 11 10 8 7 7 6 5 3 2 2 3 2 1 1 3 3 2 3 5 6 4 7 12 15 18 20 20 20 20 17 13 12 12 12 13 13 13 14 14 14 14 13 12 13 13 14 14 15 15 14 14 14 14 14 15 17 19 21 23 25 26 24 22 22 23 25 26 26 26
25 26 28 27 24 23 23 24 24 23 20 18 16 14 12 11 12 11 8 9 10 9 5 4 4 4 4 4 4 2 1 2 4 4 5 6 6 8 11 13 15 17 19 19 17 15 14 14 14 13 14 14 15 15 15 16 16 16 16 16 16 17 17 17 18 18 17 18 18 17 18 18 17 19 20 22 24 25 24 23 22 23 24 24 25
26 27 27 25 24 24 24 24 25 25 23 20 19 16 13 12 13 13 10 9 10 9 5 4 6 5 5 5 5 4 3 0 3 4 5 7 8 8 10 11 11 12 13 14 14 13 14 15 15 15 15 15 16 16 16 17 18 19 20 20 20 20 20 21 23 23 22 22 22 21 21 20 19 19 19 19 21 24 25 24 22 22 23 23 23
26 26 26 26 25 25 25 25 26 25 24 23 20 18 16 15 15 15 13 10 9 9 8 8 8 7 6 7 7 6 5 3 4 7 7 8 8 9 9 10 11 10 9 9 11 13 14 15 15 15 15 16 15 15 15 17 18 19 20 19 19 20 20 21 22 21 21 21 22 21 21 21 21 21 20 19 19 21 24 25 23 22 22 22 22
26 26 27 27 26 25 25 26 26 24 24 25 22 20 19 17 15 15 14 12 12 11 9 9 10 9 8 9 10 9 8 6 5 7 9 9 8 8 8 9 10 10 9 8 10 13 14 14 15 15 15 15 15 14 14 15 16 17 18 17 17 18 18 18 18 18 19 20 20 21 21 20 20 21 21 20 18 18 21 23 22 21 21 22 22
24 24 25 25 25 24 24 25 24 24 25 26 24 22 20 18 16 15 14 13 14 13 9 8 10 10 9 9 11 12 11 9 7 7 8 9 9 8 8 8 9 9 9 10 11 12 13 13 14 14 14 14 14 14 14 14 14 15 16 17 17 17 17 17 16 17 18 19 20 21 21 19 19 20 20 20 18 17 19 21 21 20 19 19 21
Wind_Direction
148 146 146 145 145 145 133 114 97 79 63 55 51 47 44 45 46 50 47 33 27 23 17 13 10 8 8 7 6 10 15 16 16 14 15 20 18 8 356 340 327 310 291 272 262 261 256 249 244 239 232 227 228 224 217 209 201 192 178 177 184 179 174 175 180 171 156 145 152 169 163 153 184 208 211 210 207 202 206 216 216 214 216 215 212
149 149 152 150 150 149 138 118 99 81 68 58 53 54 50 50 50 49 40 30 27 22 14 9 8 5 5 6 6 10 16 14 12 11 12 17 18 11 3 347 330 319 308 285 266 262 262 253 242 239 234 224 226 227 220 211 202 195 183 176 180 182 178 176 177 170 152 145 150 137 102 121 178 219 216 211 210 209 211 214 217 220 222 221 217
153 155 156 157 154 145 135 118 101 86 68 58 60 62 57 58 56 47 37 29 25 20 12 7 2 359 2 9 13 16 21 19 17 16 12 12 14 12 6 354 338 323 315 301 276 262 260 254 242 238 232 220 219 218 214 209 203 199 192 180 171 169 176 179 181 178 159 144 136 126 98 96 181 227 222 215 212 212 216 213 213 223 227 226 224
165 162 156 159 153 140 131 120 107 93 72 63 67 68 69 72 61 47 38 28 23 18 12 7 3 360 359 8 16 17 20 21 22 23 16 10 9 10 5 357 344 326 316 306 282 261 252 249 246 240 229 219 219 216 209 205 203 200 196 190 176 161 165 179 186 184 167 154 135 86 94 94 214 207 190 215 219 219 219 212 212 223 226 225 225
167 159 159 161 148 137 130 119 109 96 82 75 73 77 84 82 63 47 38 29 23 17 11 7 9 11 5 7 14 14 14 16 16 14 12 9 7 7 6 0 348 331 316 304 280 258 246 241 242 239 229 220 220 218 213 208 206 203 198 194 187 176 172 180 187 188 179 174 169 136 116 130 231 163 157 205 218 222 224 216 215 221 220 221 224
162 153 160 157 142 137 130 119 111 98 93 88 79 84 93 84 62 48 40 32 25 18 12 8 12 17 14 13 15 12 9 8 5 1 1 3 4 6 8 7 358 341 321 302 275 251 241 236 235 233 225 220 217 215 215 213 208 206 203 198 198 197 190 183 186 192 193 190 182 162 176 250 215 148 146 221 215 222 228 221 220 221 218 219 223
152 150 159 150 139 138 133 124 113 103 105 96 84 91 95 80 62 51 43 36 27 18 13 12 15 16 14 14 15 14 7 3 4 4 2 1 3 5 8 12 8 355 334 315 289 246 233 233 233 229 222 217 213 211 212 213 210 208 207 203 204 203 198 189 185 190 196 197 193 188 214 249 209 163 165 176 191 219 223 219 221 222 220 221 223
144 146 155 144 140 139 136 131 118 111 112 100 93 100 95 78 63 54 47 38 29 20 14 16 18 14 11 11 12 15 9 3 6 10 8 3 4 6 7 11 13 6 352 338 330 254 232 233 232 228 223 216 211 210 210 210 210 207 204 204 203 202 202 197 188 187 191 194 196 204 223 241 198 182 190 182 157 188 213 218 221 222 223 222 224
139 145 153 145 145 143 139 135 124 117 113 101 98 99 90 77 63 52 46 40 30 20 16 19 17 13 12 11 11 11 8 4 6 10 8 5 3 5 8 10 13 12 6 351 347 324 258 238 230 228 222 213 209 211 210 209 207 204 201 201 200 199 201 201 196 194 193 190 194 206 216 215 185 194 203 198 181 152 191 222 212 215 227 225 224
130 146 155 150 150 146 140 132 122 118 115 102 96 97 92 75 59 49 45 45 32 21 22 26 20 13 13 16 16 12 6 5 7 8 5 3 2 2 6 10 11 13 13 9 9 2 294 253 237 232 221 211 208 210 208 205 205 206 206 204 202 200 200 203 205 203 198 193 197 205 205 185 174 188 200 205 210 180 181 206 197 197 214 223 223
140 151 153 151 152 148 138 128 120 119 119 105 97 103 98 76 59 53 55 60 41 27 27 30 24 16 14 16 17 13 7 6 6 3 1 0 358 357 2 7 10 12 15 17 23 31 321 260 236 231 218 206 208 212 207 202 202 207 210 206 204 205 203 205 206 206 204 201 204 211 210 201 189 185 193 203 216 212 174 182 197 200 208 219 222
157 159 154 148 149 144 134 128 124 127 128 116 111 116 105 84 65 59 73 84 54 35 30 30 26 20 17 17 16 13 10 9 6 359 358 359 354 353 360 4 8 11 14 19 22 19 5 305 222 224 227 205 205 211 206 201 199 202 206 206 206 208 206 204 202 200 202 205 210 215 216 215 208 199 198 203 218 236 230 191 188 192 208 224 224
169 165 157 150 147 140 135 134 135 139 141 133 124 122 112 88 67 68 87 86 54 41 36 29 25 22 19 16 13 10 9 9 6 356 355 358 355 353 357 1 5 5 7 17 24 23 15 5 280 237 239 223 201 200 199 201 201 202 205 207 208 209 209 208 205 202 202 205 212 216 216 219 218 213 210 208 212 223 238 228 194 184 200 217 216
177 161 150 153 150 144 142 141 145 155 154 139 129 126 110 88 77 86 91 73 51 45 39 29 24 22 17 11 7 7 5 4 4 357 352 355 355 353 354 359 5 4 2 10 19 27 25 15 15 276 235 225 212 196 194 199 204 207 208 210 210 208 205 206 208 210 209 208 213 218 218 219 219 218 218 215 213 210 210 215 203 198 217 202 201
169 154 152 162 158 152 151 147 149 162 161 142 135 128 105 94 97 96 86 69 53 42 35 29 25 21 15 6 360 358 359 359 359 356 351 353 353 352 352 356 2 5 7 8 10 19 24 22 27 29 231 220 214 201 196 197 202 206 203 203 207 206 202 203 207 210 211 208 209 214 218 220 220 220 220 220 221 220 214 211 202 198 242 255 214
159 157 161 168 166 162 160 152 149 162 162 149 142 131 113 110 108 95 81 69 51 37 34 31 25 22 16 5 353 351 357 358 353 349 347 348 350 349 349 352 356 2 10 12 7 10 17 24 32 29 358 227 208 199 200 198 199 203 200 200 206 211 212 211 210 211 212 210 208 211 217 221 222 222 223 222 223 226 224 219 213 207 214 251 289
168 167 169 171 169 167 162 153 149 156 160 155 143 128 123 118 107 91 79 63 46 38 34 26 23 23 16 5 356 353 354 352 349 346 345 344 346 348 348 349 353 359 8 12 8 6 10 20 28 26 14 293 201 196 197 193 196 201 204 206 211 215 216 215 214 215 218 219 215 214 218 220 220 220 222 224 226 228 227 222 218 219 220 222 232
176 171 168 169 168 166 159 154 157 153 157 153 138 127 125 116 99 88 78 62 49 42 33 23 20 19 10 2 1 357 351 351 354 354 352 349 348 348 348 350 355 -0 6 10 6 2 5 13 22 28 32 55 167 197 196 190 196 203 207 210 210 207 208 215 223 225 224 222 218 217 219 220 220 219 221 225 227 229 227 220 215 218 224 225 235
175 166 164 169 167 164 159 165 180 162 153 147 137 134 128 113 95 85 82 73 55 43 34 26 17 11 5 1 2 0 358 360 -0 359 1 358 353 349 349 351 357 2 5 6 6 4 1 5 16 25 37 63 93 162 178 183 200 209 210 210 210 207 207 214 224 226 223 218 215 216 218 219 218 216 217 222 225 227 227 223 219 216 213 221 245
170 162 165 170 166 164 167 182 186 159 151 147 144 142 129 110 95 84 84 80 58 46 40 28 17 10 5 3 1 359 2 5 2 3 6 3 357 353 351 352 357 2 4 3 6 11 7 359 7 19 31 65 89 94 125 154 194 214 211 207 205 205 207 212 216 218 219 214 209 212 214 213 212 210 211 217 221 224 225 222 220 217 215 223 234
167 164 167 169 170 173 182 194 178 154 149 148 147 140 123 111 101 88 81 77 68 55 40 23 15 12 9 10 3 357 1 2 2 9 9 7 7 6 4 3 4 4 3 5 5 13 19 10 2 7 18 44 82 93 109 131 161 200 205 203 197 192 193 199 201 202 205 200 196 201 207 210 212 212 213 215 216 218 216 214 212 209 212 220 227
168 167 168 174 181 186 192 188 158 151 149 148 146 136 122 115 106 93 78 75 77 59 42 24 13 14 15 14 4 358 1 359 4 14 14 16 22 24 23 22 27 24 17 18 18 17 23 27 22 8 1 13 34 55 76 130 225 205 202 200 196 195 194 191 188 190 192 183 173 178 188 200 208 211 216 217 218 218 212 209 211 210 212 214 222
171 169 177 184 188 192 189 160 148 154 154 150 145 132 120 116 108 92 72 71 83 72 54 33 16 19 22 17 6 5 7 3 10 19 18 21 28 36 42 42 43 41 37 41 40 32 26 26 32 25 8 357 359 25 46 29 317 307 253 205 197 205 207 201 198 199 198 190 179 172 166 169 184 195 200 203 210 216 209 202 200 202 207 210 218
176 178 185 187 187 185 167 150 150 157 158 152 144 131 122 119 112 93 69 61 79 97 70 33 16 21 22 21 14 11 11 10 17 21 20 30 43 53 57 57 52 40 33 36 37 38 37 29 26 24 21 17 347 308 29 26 1 344 293 219 219 227 222 219 221 219 215 210 205 198 185 166 167 185 189 188 194 205 205 198 191 198 215 218 221
181 186 187 188 185 171 159 155 151 152 156 154 144 133 124 117 110 94 69 51 64 106 82 26 15 16 18 21 16 11 11 15 24 26 32 48 58 57 56 54 44 29 21 20 20 24 32 36 37 28 24 25 14 222 224 274 342 26 334 239 252 248 239 241 232 224 223 221 219 218 209 195 179 180 183 181 183 190 197 199 187 187 216 226 223
184 186 187 189 182 170 164 160 150 145 152 153 146 133 123 118 108 86 59 45 70 110 91 46 31 15 15 17 12 7 10 23 31 33 45 62 60 51 51 47 40 33 28 22 17 16 22 36 47 49 48 49 73 169 200 222 218 247 285 301 301 258 249 261 242 225 225 227 227 228 224 214 200 182 171 166 167 170 180 189 183 177 190 210 223
186 182 181 178 176 176 169 160 151 144 148 151 146 133 128 128 114 82 53 52 88 120 103 64 44 14 14 17 14 3 7 29 35 34 56 68 52 48 49 45 44 40 36 30 22 18 22 35 48 58 66 72 87 121 144 163 177 232 276 272 301 258 244 267 253 226 225 228 229 230 229 223 215 203 184 160 151 151 166 181 185 186 191 205 224
187 178 178 174 176 181 172 161 154 146 146 149 144 137 136 131 112 80 55 62 104 134 122 75 36 6 0 11 15 3 10 34 30 35 67 63 43 50 50 45 48 47 47 46 34 30 38 47 51 55 64 81 92 107 113 110 126 145 214 251 277 257 241 254 264 235 226 223 226 230 230 230 228 224 220 195 166 159 183 189 183 188 197 207 222
198 190 186 180 177 180 176 169 157 148 150 152 146 143 139 123 100 66 52 82 133 136 112 73 42 23 356 10 22 11 18 27 23 42 80 59 47 59 49 43 53 55 57 57 51 61 75 71 66 58 57 69 77 86 96 74 55 18 262 245 251 258 248 243 245 251 235 225 227 228 225 228 236 237 237 236 225 216 218 198 178 179 192 204 216
200 197 190 181 178 180 179 170 159 154 156 154 148 144 135 116 90 51 59 123 150 128 97 73 60 57 32 42 50 33 22 24 36 73 85 56 55 55 40 42 55 53 49 54 63 79 86 82 80 71 59 55 55 58 59 37 2 325 298 272 256 258 261 251 247 251 248 237 233 228 223 225 234 241 244 243 238 237 239 231 209 187 181 193 209
202 196 187 180 180 178 175 168 162 160 156 150 145 142 133 111 72 54 101 141 150 124 94 77 68 75 65 66 72 56 37 39 68 85 66 54 56 43 33 48 57 48 47 59 67 68 69 71 72 69 64 55 46 41 31 7 331 305 287 269 262 259 255 259 267 277 304 276 243 232 235 236 234 238 241 232 219 223 236 242 248 254 225 217 219
191 186 181 181 179 173 170 165 159 155 149 145 146 148 147 128 68 76 135 151 149 118 96 88 80 74 76 73 69 59 51 55 75 75 54 57 61 45 36 50 58 55 60 66 67 66 64 62 60 61 61 52 43 32 17 357 323 294 274 254 251 253 254 259 260 268 23 9 260 235 253 251 238 232 230 220 203 198 205 217 227 229 229 234 234
180 182 180 173 168 162 155 149 146 147 146 148 152 153 156 131 55 71 149 158 148 114 98 96 88 74 74 76 66 60 59 62 71 73 63 60 59 49 37 39 51 66 69 62 58 60 61 57 58 60 54 45 38 29 15 353 314 280 262 257 249 242 246 255 255 252 346 21 60 134 203 209 208 212 218 225 222 203 195 200 209 210 210 216 223
164 164 155 144 143 143 141 139 141 145 145 145 147 149 150 104 52 87 153 161 150 123 110 112 102 78 61 74 74 63 59 64 70 70 67 64 57 41 27 24 30 77 77 67 53 43 43 50 60 60 46 36 32 28 20 354 318 275 240 234 238 235 239 250 253 245 271 47 108 123 125 139 153 171 189 206 214 202 194 192 184 179 194 201 205
138 128 129 135 135 134 136 137 138 142 142 141 146 158 155 110 68 97 153 164 158 138 130 132 117 86 52 77 92 71 60 66 70 61 58 65 55 19 16 19 0 176 104 82 57 36 34 48 60 57 40 29 27 30 33 28 14 3 178 172 180 205 210 214 200 159 147 119 119 128 124 117 116 117 128 145 162 167 167 168 161 151 154 168 170
147 140 139 140 139 139 140 139 138 140 140 137 147 169 147 105 45 64 161 171 168 157 154 148 126 94 75 134 105 82 77 76 68 49 50 60 42 343 1 6 189 188 189 133 57 35 39 55 59 51 34 27 30 36 43 54 64 78 102 119 123 122 122 116 109 115 125 122 120 125 121 114 113 105 104 112 123 133 141 146 144 139 135 138 145
148 146 145 145 146 147 147 146 145 143 138 134 159 188 153 84 20 65 149 168 176 173 167 156 136 118 227 227 259 57 89 97 84 66 48 49 339 315 1 12 158 193 202 179 47 26 46 62 62 49 32 29 36 39 41 58 79 87 98 109 114 112 110 109 108 110 113 109 103 100 95 93 94 95 97 100 103 122 146 150 144 147 150 150 159
145 145 147 149 152 154 154 154 153 149 147 144 188 184 152 17 7 104 137 164 183 182 171 158 140 318 264 246 250 86 118 137 134 162 237 275 277 317 9 19 195 203 199 174 26 7 59 69 68 54 37 36 44 43 40 53 77 90 98 107 111 109 103 100 99 98 97 95 90 85 81 76 73 71 72 80 86 110 152 160 165 176 186 205 232
151 153 155 156 158 158 158 160 160 159 161 157 157 168 180 342 353 137 130 140 161 168 170 166 129 54 15 273 256 155 157 185 254 275 283 305 310 317 349 271 219 206 187 182 248 303 87 91 83 57 43 43 50 49 43 49 67 91 105 114 118 113 103 95 92 91 90 88 85 80 75 69 66 64 59 63 70 68 101 133 161 175 171 176 281
157 160 161 161 163 162 163 168 168 165 167 165 156 173 255 323 160 153 142 94 25 110 168 172 134 86 74 20 271 229 244 258 285 292 302 322 319 304 308 301 241 214 202 208 232 247 122 119 95 53 45 45 48 50 49 51 65 88 108 120 125 117 108 102 99 96 92 87 83 80 76 73 71 70 68 68 70 69 75 92 111 120 117 109 80
166 167 166 165 169 170 171 175 173 167 170 172 165 177 255 297 214 182 164 113 41 148 159 161 146 114 80 33 325 298 290 285 297 303 309 329 341 315 304 305 270 233 231 230 232 227 163 128 95 52 43 40 40 49 55 58 69 85 101 113 114 110 108 108 104 100 95 91 87 83 81 79 75 73 71 70 69 70 77 85 92 95 98 100 100
170 170 170 170 174 178 179 177 173 172 174 172 167 182 248 275 204 178 154 113 126 148 149 143 140 146 70 350 327 327 319 305 305 304 303 358 52 55 330 296 270 245 238 239 223 179 151 124 92 52 31 23 33 59 65 63 69 79 90 98 98 98 103 107 104 100 96 93 89 85 84 81 77 73 71 69 68 69 73 77 81 86 92 98 102
174 174 176 175 177 183 184 178 176 179 181 174 169 188 208 182 170 164 159 161 142 138 146 143 136 158 251 336 332 332 334 328 330 83 105 60 53 55 51 33 229 227 227 224 141 145 140 119 86 47 23 20 52 85 78 67 70 78 86 91 92 93 98 102 101 98 96 94 91 88 87 84 79 75 72 70 70 72 74 77 81 87 94 98 101
179 182 182 180 182 184 182 179 180 184 187 181 178 188 190 180 175 169 171 177 157 151 170 165 137 177 202 338 342 8 66 70 92 120 90 33 36 59 78 93 117 155 174 154 139 140 132 111 81 55 43 50 84 98 87 76 78 84 88 89 90 92 96 98 98 98 97 97 94 90 90 87 83 80 77 74 73 75 77 79 82 86 90 92 92
186 187 185 186 189 186 181 181 185 188 190 189 190 194 194 193 189 179 177 187 187 184 186 182 263 237 200 220 7 67 70 57 82 113 30 14 36 85 95 97 106 117 124 128 131 129 120 104 86 70 65 76 95 101 93 86 86 86 86 87 89 93 96 97 97 97 96 96 95 93 93 91 87 85 81 77 74 74 77 79 79 80 80 79 79
188 190 191 192 193 189 184 185 189 192 193 195 198 202 202 201 197 190 191 199 197 190 189 192 219 220 194 185 186 58 22 11 19 29 23 25 57 107 108 102 106 113 118 122 125 124 117 106 91 81 80 87 96 98 92 87 85 83 83 87 91 94 95 93 92 94 94 96 97 97 97 95 92 89 83 77 73 71 73 76 76 75 74 72 71
192 195 196 195 192 190 189 190 193 196 197 200 205 210 207 199 195 190 186 185 182 179 186 204 208 197 173 171 186 207 294 7 19 22 34 51 80 118 121 110 108 113 118 121 125 125 120 109 98 93 94 94 95 95 89 83 81 80 84 91 94 96 97 96 96 97 98 98 100 100 98 95 95 92 87 79 72 67 66 70 74 74 72 71 70
200 199 196 195 195 194 194 195 197 200 200 202 210 216 207 191 186 182 174 172 178 181 188 207 211 204 191 187 194 211 224 86 56 60 69 74 83 105 118 116 115 115 117 120 124 123 118 111 106 106 104 99 95 92 84 77 75 78 85 93 98 100 101 99 98 98 98 99 99 98 95 92 90 91 89 82 75 68 65 67 74 76 74 72 70
205 203 199 198 199 199 199 200 202 203 203 205 212 214 200 184 179 180 181 184 192 196 201 209 215 223 231 226 220 220 219 185 111 94 91 88 85 88 99 109 116 116 110 110 117 119 116 114 113 112 109 104 97 89 81 76 73 78 86 95 101 104 104 102 101 100 100 99 97 94 93 91 89 87 85 82 79 74 68 67 72 76 73 69 64
208 207 205 202 202 203 202 202 205 206 205 207 210 204 192 184 182 184 189 195 198 201 208 216 222 234 249 247 234 221 211 190 143 111 100 98 97 95 99 106 113 115 111 110 114 117 117 118 116 112 109 106 99 91 85 81 78 81 87 95 103 108 106 104 105 103 100 98 96 93 92 91 89 85 82 79 80 79 73 69 71 72 69 64 60
209 207 205 204 204 204 201 201 203 204 204 207 207 198 190 190 191 187 189 197 204 207 211 216 221 233 253 258 239 218 205 195 173 140 115 105 105 107 111 114 115 117 119 121 120 120 122 123 120 114 111 109 105 99 94 90 90 92 94 99 105 108 107 105 106 104 99 98 96 93 91 90 88 84 81 79 81 83 79 73 72 71 67 62 57